Regional Weather Roundup
Issued by NWS

Home | Current Version | Previous Version | Graphics & Text | Print | Product List | Glossary On
Versions: 1 2 3 4 5 6 7 8 9 10 11 12 13 14 15 16 17 18 19 20 21 22 23 24 25 26 27 28 29 30 31 32 33 34 35 36 37 38 39 40 41 42 43 44 45 46 47 48 49 50
000
ASUS43 KIND 301359
RWRIN

WEATHER ROUNDUP FOR INDIANA
NATIONAL WEATHER SERVICE INDIANAPOLIS IN
1000 AM EDT THU JUL 30 2015

NOTE: "FAIR" INDICATES FEW OR NO CLOUDS BELOW 12,000 FEET WITH NO
SIGNIFICANT WEATHER AND/OR OBSTRUCTIONS TO VISIBILITY.

* - STATION DOES NOT REPORT WEATHER SUCH AS PRECIPITATION OR FOG.

+ - STATION NOT QUALITY CONTROLLED BY THE NATIONAL WEATHER SERVICE.
    USE DATA WITH CAUTION...ESPECIALLY DEWPOINT AND RELATIVE
    HUMIDITY OBSERVATIONS.

INZ001>003-010>013-019-020-301500-
NORTHWEST INDIANA

CITY           SKY/WX    TMP DP  RH WIND       PRES   REMARKS
GARY /AIRPORT/ SUNNY     77  61  57 W10       30.07R
RENSSELAER +   SUNNY     73  64  73 W5        30.08F

$$

LMZ046-743>745-301500-
SOUTHERN LAKE MICHIGAN

STATION/POSITION TIME  TEMP    WIND        PRES    WAVE
                       AIR SEA DIR/SP/G            HT
                 (UTC) (F)     (DEG/KT/KT) (MB)    (FT)
BURNS HARBOR     1300   71     280/ 12/ 16 1017.9R
MICHIGAN CITY    1300   72     250/ 17/ 18   N/A
5NW MICH CITY    1300   72 72  290/ 12/ 16   N/A     4

$$

INZ004-005-014>016-021>024-301500-
NORTH CENTRAL INDIANA

CITY           SKY/WX    TMP DP  RH WIND       PRES   REMARKS
ELKHART        SUNNY     75  63  64 W8        30.05R
GOSHEN         SUNNY     74  64  71 W9        30.04S
SOUTH BEND     SUNNY     76  62  62 W12       30.05R

$$

INZ006>009-017-018-025>027-301500-
NORTHEAST INDIANA

CITY           SKY/WX    TMP DP  RH WIND       PRES   REMARKS
ANGOLA *+      SUNNY     75  63  64 W7        30.03S
FORT WAYNE     MOSUNNY   74  61  63 W8        30.06S

$$

INZ028-029-035-036-043>045-051>053-301500-
WEST CENTRAL INDIANA

CITY           SKY/WX    TMP DP  RH WIND       PRES   REMARKS
CRAWFORDSVL +  SUNNY     71  58  64 NW6         N/A
GREENCASTLE +  SUNNY     72  55  56 N8        30.11S
LAFAYETTE      SUNNY     74  64  71 NW7       30.08S
TERRE HAUTE    SUNNY     75  61  61 N7        30.11S

$$

INZ030>032-037>040-046>048-054>057-064-065-301500-
CENTRAL INDIANA

CITY           SKY/WX    TMP DP  RH WIND       PRES   REMARKS
ANDERSON       SUNNY     73  57  56 NW6       30.09S
GREENWOOD *+   SUNNY     75  57  53 NW5       30.10S
INDIANAPOLIS   MOSUNNY   77  60  55 NW8       30.09R
-EAGLE CREEK   SUNNY     74  61  63 NW9       30.09S
KOKOMO *+      SUNNY     73  61  64 N8        30.08S
MT COMFORT *+  SUNNY     75  57  53 NW8       30.09S
SHELBYVILLE    SUNNY     76  63  64 N6        30.09R

$$

INZ033-034-041-042-049-050-058-059-301500-
EAST CENTRAL INDIANA

CITY           SKY/WX    TMP DP  RH WIND       PRES   REMARKS
MUNCIE         SUNNY     73  62  68 NW8       30.08S

$$

INZ060-061-067>069-081>083-085>088-301500-
SOUTHWEST INDIANA

CITY           SKY/WX    TMP DP  RH WIND       PRES   REMARKS
EVANSVILLE     SUNNY     78  62  57 N8        30.13R
HUNTINGBURG *+ SUNNY     75  63  64 N6        30.12S

$$

INZ062-063-066-070>080-084-089>092-301500-
SOUTH CENTRAL AND SOUTHEAST INDIANA

CITY           SKY/WX    TMP DP  RH WIND       PRES   REMARKS
BLOOMINGTON    SUNNY     76  63  64 N5        30.12R
MADISON *+     SUNNY     73  59  60 NW5       30.12S
SEYMOUR +      SUNNY     77  61  57 N7        30.10R

$$



USA.gov is the U.S. government's official web portal to all federal, state and local government web resources and services.